NOAA 16 DEB, 41064

Orbit data source: Space-Track

NOAA 16 DEB, 41064 is space debris in SSO originally from a launch on Thu, 21 Sep 2000 UTC launched from the Air Force Western Test Range (AFWTR). Debris objects in space refer to the collection of defunct objects orbiting the Earth. Examples of debris include non-operational satellites, rocket bodies, and fragments generated from explosions, collisions, or faulty payload assembly.

Loading next visibility...
Identifier
41064, 2000-055X
Orbit
SSO
Country
Flag of USUS
Related business
Manufacturer
Unknown
Mission
Spacecraft
Bus & Motor
Unknown
Mass
Unknown
Launch date (UTC)
2000-09-21 (25 years ago)
Launch vehicle
Unknown
Launch site
Air Force Western Test Range (AFWTR)
Object type
Payload
Rocket body
Debris
Shape & HBR
Unknown shape, 0.1 m
Radar Cross Section
Small (<0.1 m²)

Expand to show TLE details & history
Last TLE update: 22 hours ago

TLE from 22 hours ago
0 NOAA 16 DEB
1 41064U 00055X   26033.59097024  .00009937  00000-0  29104-2 0  9991
2 41064  98.8445 165.6337 0013664 259.2721 100.6930 14.44058599528557
Epoch: 2026-02-02T14:10Z
TLE epoch observation values (Epoch: 2026-02-02T14:10:59.828Z)
Latitude
-0.00004°
Longitude
-179.89964°
Altitude
749.882 km
Speed
7.479 km/s
True Right ascension
11h 02m 32s
True Declination
0° 00' 00"
Sunlit
Object was in full shadow at epoch
Visualization orbit readout
Latitude
Unknown
Longitude
Unknown
Altitude
Unknown
Speed
Unknown
Apparent Right ascension
Unknown
Apparent Declination
Unknown
Sunlit
N/A
Visualization observer readout
Local Sidereal Time
13:46:12
Azimuth
Unknown
Elevation
Unknown
Doppler factor
Unknown
Orbital elements
Apogee altitude
751.983 km
Perigee altitude
732.524 km
Semi-major axis
7,120.39 km
Eccentricity
0.00137
Inclination
98.8445°
RAAN
165.6337°
Arg. of periapsis
259.2721°
True anomaly
100.84681°
Mean anomaly
100.693°
Eccentric anomaly
100.76991°
Mean motion
3.61233 °/min
Orbital period
99.66 mins
BSTAR
0.0029104
Loading maneuver chart data...
Computing Atmospheric mass density...
Loading historical data...
Loading historical data...
Loading historical data...
Loading historical data...
Loading historical data...
Loading historical data...
Loading historical data...

Documentation

Showing up to 5 results
|